QPF
0.04 0.02 0.01 0.01 0.01 0.01 0.01 0.01 0.00 0.00 0.01 0.01 0.01 0.01 0.02 0.01 0.01 0.01 0.01 0.01 0.01 0.02 0.02 0.02 0.03 0.04 0.05 0.06 0.06 0.07 0.07 0.08 0.11 0.13 0.11 0.09 0.07 0.05 0.04 0.04 0.04 0.05 0.07 0.09
0.03 0.01 0.00 0.00 0.01 0.01 0.01 0.01 0.00 0.00 0.00 0.01 0.01 0.01 0.02 0.02 0.01 0.01 0.01 0.01 0.01 0.02 0.02 0.02 0.02 0.03 0.04 0.04 0.04 0.05 0.07 0.08 0.09 0.10 0.10 0.09 0.07 0.06 0.04 0.04 0.05 0.06 0.07 0.08
0.02 0.01 0.00 0.01 0.01 0.01 0.01 0.00 0.00 0.01 0.01 0.01 0.01 0.02 0.03 0.02 0.02 0.01 0.01 0.01 0.01 0.01 0.01 0.02 0.02 0.03 0.04 0.04 0.04 0.04 0.05 0.07 0.09 0.09 0.09 0.10 0.10 0.08 0.06 0.05 0.06 0.08 0.10 0.12
0.01 0.00 0.00 0.01 0.01 0.01 0.01 0.00 0.00 0.01 0.01 0.01 0.02 0.04 0.03 0.03 0.02 0.01 0.01 0.01 0.01 0.01 0.01 0.01 0.02 0.03 0.04 0.04 0.04 0.04 0.05 0.07 0.08 0.08 0.08 0.08 0.10 0.09 0.06 0.07 0.07 0.08 0.10 0.13
0.01 0.00 0.00 0.00 0.00 0.00 0.00 0.00 0.01 0.01 0.01 0.01 0.01 0.03 0.02 0.03 0.02 0.01 0.01 0.02 0.02 0.01 0.01 0.01 0.02 0.02 0.02 0.03 0.03 0.04 0.04 0.06 0.06 0.07 0.07 0.07 0.09 0.10 0.08 0.07 0.08 0.08 0.09 0.10
0.01 0.00 0.00 0.00 0.00 0.00 0.01 0.01 0.01 0.01 0.02 0.02 0.01 0.02 0.02 0.02 0.03 0.02 0.02 0.03 0.03 0.02 0.01 0.01 0.01 0.02 0.02 0.03 0.03 0.03 0.04 0.05 0.06 0.07 0.06 0.07 0.08 0.09 0.08 0.07 0.08 0.09 0.09 0.10
0.02 0.01 0.01 0.00 0.01 0.01 0.01 0.01 0.01 0.01 0.02 0.01 0.01 0.01 0.01 0.01 0.04 0.04 0.03 0.04 0.04 0.03 0.02 0.01 0.01 0.02 0.02 0.03 0.04 0.04 0.04 0.05 0.05 0.06 0.06 0.06 0.06 0.07 0.07 0.08 0.08 0.10 0.10 0.10
0.02 0.02 0.01 0.00 0.00 0.01 0.01 0.01 0.01 0.01 0.01 0.01 0.01 0.01 0.01 0.02 0.03 0.03 0.03 0.03 0.03 0.04 0.03 0.02 0.02 0.02 0.02 0.03 0.04 0.05 0.05 0.05 0.05 0.06 0.05 0.05 0.06 0.07 0.07 0.08 0.09 0.09 0.10 0.08
0.01 0.01 0.00 0.00 0.00 0.00 0.01 0.01 0.01 0.01 0.01 0.01 0.01 0.01 0.01 0.02 0.01 0.01 0.02 0.02 0.02 0.03 0.03 0.02 0.02 0.02 0.02 0.03 0.04 0.04 0.04 0.06 0.06 0.06 0.06 0.05 0.07 0.08 0.08 0.08 0.10 0.09 0.09 0.09
0.02 0.02 0.01 0.00 0.01 0.01 0.01 0.01 0.01 0.01 0.01 0.01 0.01 0.01 0.02 0.03 0.02 0.01 0.01 0.02 0.02 0.02 0.03 0.03 0.03 0.03 0.03 0.04 0.04 0.04 0.03 0.05 0.08 0.07 0.06 0.06 0.08 0.08 0.08 0.09 0.12 0.09 0.08 0.08
0.03 0.02 0.02 0.03 0.02 0.01 0.01 0.02 0.01 0.01 0.01 0.01 0.01 0.01 0.03 0.04 0.03 0.02 0.01 0.02 0.04 0.03 0.05 0.05 0.04 0.05 0.05 0.04 0.04 0.04 0.04 0.04 0.07 0.09 0.07 0.07 0.08 0.08 0.09 0.09 0.12 0.13 0.10 0.07
0.02 0.02 0.02 0.03 0.02 0.01 0.01 0.01 0.01 0.01 0.01 0.01 0.01 0.01 0.02 0.03 0.03 0.02 0.02 0.02 0.04 0.05 0.06 0.07 0.06 0.06 0.05 0.05 0.05 0.05 0.04 0.04 0.06 0.09 0.09 0.07 0.09 0.10 0.11 0.11 0.11 0.14 0.15 0.11
0.04 0.03 0.02 0.03 0.03 0.03 0.03 0.01 0.01 0.01 0.01 0.01 0.02 0.01 0.01 0.02 0.02 0.02 0.02 0.02 0.04 0.07 0.08 0.09 0.09 0.09 0.08 0.07 0.08 0.07 0.07 0.05 0.06 0.09 0.10 0.10 0.11 0.12 0.13 0.12 0.11 0.12 0.16 0.17
0.06 0.04 0.03 0.03 0.03 0.02 0.02 0.01 0.01 0.01 0.01 0.01 0.02 0.02 0.01 0.02 0.03 0.03 0.03 0.03 0.04 0.06 0.09 0.10 0.11 0.09 0.10 0.11 0.12 0.11 0.11 0.10 0.10 0.11 0.12 0.12 0.13 0.13 0.13 0.11 0.09 0.09 0.10 0.13
0.03 0.03 0.02 0.03 0.03 0.02 0.02 0.01 0.02 0.02 0.01 0.01 0.01 0.02 0.03 0.03 0.04 0.03 0.04 0.03 0.03 0.06 0.07 0.09 0.11 0.11 0.12 0.14 0.15 0.14 0.14 0.14 0.14 0.15 0.15 0.13 0.12 0.12 0.12 0.10 0.08 0.07 0.07 0.08
0.01 0.02 0.02 0.01 0.01 0.01 0.02 0.02 0.02 0.02 0.02 0.01 0.01 0.01 0.02 0.02 0.02 0.03 0.03 0.03 0.03 0.04 0.06 0.07 0.09 0.11 0.12 0.14 0.14 0.13 0.13 0.14 0.14 0.14 0.14 0.11 0.10 0.11 0.11 0.11 0.09 0.07 0.07 0.07
0.01 0.02 0.02 0.01 0.01 0.01 0.01 0.01 0.02 0.03 0.03 0.03 0.02 0.01 0.01 0.01 0.02 0.03 0.03 0.03 0.04 0.05 0.06 0.06 0.08 0.10 0.10 0.10 0.09 0.10 0.11 0.12 0.10 0.09 0.10 0.09 0.08 0.09 0.09 0.09 0.08 0.07 0.06 0.05
0.01 0.02 0.02 0.02 0.01 0.01 0.01 0.01 0.01 0.01 0.02 0.02 0.02 0.01 0.01 0.01 0.02 0.02 0.03 0.03 0.03 0.04 0.04 0.05 0.07 0.08 0.08 0.08 0.08 0.07 0.08 0.08 0.07 0.06 0.07 0.07 0.07 0.08 0.08 0.07 0.06 0.05 0.05 0.04
0.01 0.02 0.02 0.02 0.01 0.01 0.01 0.01 0.01 0.01 0.01 0.01 0.01 0.01 0.01 0.01 0.01 0.01 0.02 0.02 0.02 0.03 0.03 0.04 0.05 0.06 0.05 0.06 0.06 0.05 0.05 0.05 0.05 0.05 0.05 0.07 0.06 0.06 0.06 0.05 0.05 0.04 0.03 0.03
0.01 0.01 0.02 0.02 0.01 0.01 0.01 0.01 0.01 0.01 0.01 0.01 0.01 0.01 0.01 0.01 0.01 0.01 0.02 0.02 0.02 0.02 0.02 0.03 0.04 0.04 0.04 0.04 0.03 0.04 0.05 0.05 0.05 0.05 0.05 0.05 0.04 0.04 0.03 0.03 0.03 0.03 0.03 0.03
0.01 0.01 0.01 0.01 0.01 0.01 0.00 0.00 0.00 0.01 0.01 0.01 0.01 0.01 0.01 0.01 0.01 0.02 0.02 0.02 0.01 0.02 0.02 0.03 0.03 0.04 0.03 0.03 0.03 0.03 0.04 0.05 0.05 0.04 0.05 0.05 0.04 0.04 0.03 0.03 0.03 0.02 0.02 0.02
0.01 0.01 0.02 0.02 0.01 0.01 0.00 0.00 0.00 0.01 0.00 0.00 0.01 0.01 0.01 0.01 0.01 0.01 0.02 0.02 0.02 0.02 0.03 0.03 0.03 0.04 0.03 0.03 0.04 0.04 0.04 0.04 0.04 0.04 0.04 0.06 0.05 0.04 0.03 0.03 0.03 0.02 0.02 0.02
0.01 0.02 0.02 0.02 0.01 0.01 0.00 0.01 0.01 0.01 0.01 0.00 0.00 0.00 0.01 0.01 0.01 0.01 0.01 0.02 0.02 0.03 0.03 0.03 0.03 0.03 0.04 0.04 0.04 0.05 0.05 0.04 0.04 0.04 0.05 0.05 0.05 0.05 0.04 0.03 0.03 0.02 0.02 0.02
0.01 0.01 0.02 0.02 0.01 0.01 0.01 0.01 0.01 0.01 0.01 0.00 0.00 0.00 0.00 0.01 0.01 0.01 0.01 0.01 0.02 0.02 0.03 0.03 0.03 0.03 0.03 0.04 0.04 0.05 0.05 0.04 0.04 0.04 0.05 0.04 0.04 0.04 0.03 0.03 0.03 0.03 0.03 0.02
0.01 0.02 0.01 0.01 0.01 0.01 0.01 0.01 0.01 0.01 0.00 0.00 0.00 0.00 0.00 0.01 0.01 0.01 0.01 0.01 0.01 0.01 0.02 0.02 0.02 0.02 0.02 0.03 0.03 0.04 0.04 0.04 0.04 0.04 0.04 0.03 0.03 0.03 0.03 0.03 0.03 0.03 0.03 0.02
0.01 0.01 0.02 0.02 0.01 0.01 0.01 0.01 0.01 0.01 0.01 0.00 0.00 0.00 0.00 0.01 0.01 0.01 0.01 0.01 0.01 0.01 0.02 0.02 0.02 0.02 0.02 0.03 0.03 0.03 0.04 0.03 0.03 0.03 0.02 0.02 0.02 0.02 0.03 0.03 0.03 0.03 0.02 0.02
MSLP
1024.03 1024.21 1024.43 1024.59 1024.61 1024.46 1024.12 1023.60 1022.97 1022.33 1021.77 1021.37 1021.18 1021.20 1021.42 1021.76 1022.16 1022.51 1022.77 1022.88 1022.82 1022.61 1022.27 1021.85 1021.37 1020.87 1020.33 1019.77 1019.16 1018.52 1017.83 1017.14 1016.48 1015.90 1015.46 1015.19 1015.13 1015.27 1015.60 1016.07 1016.63 1017.21 1017.78 1018.30
1024.85 1025.02 1025.21 1025.32 1025.29 1025.08 1024.67 1024.10 1023.44 1022.77 1022.20 1021.80 1021.61 1021.65 1021.88 1022.23 1022.61 1022.94 1023.15 1023.20 1023.08 1022.80 1022.41 1021.94 1021.46 1020.96 1020.47 1019.97 1019.44 1018.85 1018.21 1017.52 1016.82 1016.15 1015.57 1015.15 1014.91 1014.89 1015.07 1015.43 1015.92 1016.49 1017.07 1017.64
1025.65 1025.79 1025.92 1025.97 1025.89 1025.61 1025.15 1024.53 1023.82 1023.11 1022.50 1022.07 1021.85 1021.85 1022.05 1022.36 1022.70 1022.99 1023.16 1023.16 1023.00 1022.69 1022.27 1021.80 1021.33 1020.87 1020.43 1020.01 1019.56 1019.06 1018.48 1017.83 1017.13 1016.42 1015.76 1015.20 1014.81 1014.62 1014.65 1014.88 1015.26 1015.77 1016.33 1016.92
1026.36 1026.45 1026.53 1026.53 1026.38 1026.06 1025.56 1024.90 1024.15 1023.40 1022.74 1022.24 1021.94 1021.86 1021.97 1022.20 1022.47 1022.71 1022.84 1022.83 1022.66 1022.35 1021.95 1021.50 1021.05 1020.64 1020.26 1019.90 1019.54 1019.13 1018.64 1018.05 1017.39 1016.68 1015.97 1015.33 1014.82 1014.48 1014.35 1014.43 1014.69 1015.10 1015.61 1016.18
1026.94 1026.99 1027.02 1026.97 1026.79 1026.45 1025.94 1025.27 1024.51 1023.72 1022.99 1022.40 1021.99 1021.78 1021.75 1021.86 1022.05 1022.22 1022.32 1022.30 1022.16 1021.89 1021.53 1021.13 1020.73 1020.36 1020.02 1019.72 1019.42 1019.08 1018.67 1018.16 1017.56 1016.88 1016.17 1015.49 1014.89 1014.44 1014.17 1014.10 1014.22 1014.52 1014.96 1015.48
1027.39 1027.40 1027.40 1027.33 1027.15 1026.83 1026.35 1025.71 1024.95 1024.15 1023.36 1022.66 1022.11 1021.73 1021.54 1021.50 1021.56 1021.65 1021.71 1021.70 1021.60 1021.39 1021.10 1020.76 1020.41 1020.07 1019.77 1019.50 1019.24 1018.95 1018.60 1018.17 1017.63 1017.01 1016.33 1015.64 1015.00 1014.46 1014.07 1013.87 1013.87 1014.05 1014.39 1014.85
1027.73 1027.71 1027.69 1027.63 1027.49 1027.23 1026.81 1026.25 1025.54 1024.73 1023.90 1023.10 1022.40 1021.84 1021.44 1021.22 1021.12 1021.11 1021.13 1021.12 1021.05 1020.91 1020.70 1020.43 1020.13 1019.83 1019.54 1019.28 1019.03 1018.77 1018.46 1018.08 1017.61 1017.05 1016.42 1015.75 1015.09 1014.50 1014.03 1013.72 1013.59 1013.66 1013.90 1014.29
1027.99 1027.94 1027.92 1027.89 1027.82 1027.65 1027.35 1026.89 1026.26 1025.49 1024.62 1023.73 1022.88 1022.12 1021.52 1021.09 1020.81 1020.67 1020.62 1020.60 1020.57 1020.49 1020.35 1020.14 1019.89 1019.62 1019.34 1019.07 1018.81 1018.54 1018.25 1017.90 1017.49 1016.99 1016.41 1015.78 1015.13 1014.51 1013.98 1013.59 1013.36 1013.32 1013.46 1013.78
1028.20 1028.13 1028.12 1028.14 1028.15 1028.10 1027.93 1027.59 1027.05 1026.33 1025.46 1024.49 1023.50 1022.56 1021.74 1021.09 1020.63 1020.34 1020.20 1020.14 1020.12 1020.09 1020.01 1019.87 1019.67 1019.42 1019.14 1018.86 1018.58 1018.30 1018.00 1017.67 1017.29 1016.83 1016.30 1015.70 1015.07 1014.45 1013.88 1013.42 1013.11 1012.98 1013.04 1013.29
1028.39 1028.31 1028.31 1028.37 1028.46 1028.52 1028.47 1028.25 1027.81 1027.15 1026.28 1025.25 1024.14 1023.03 1022.02 1021.17 1020.52 1020.08 1019.83 1019.72 1019.69 1019.69 1019.67 1019.58 1019.43 1019.21 1018.94 1018.65 1018.34 1018.04 1017.73 1017.40 1017.02 1016.59 1016.09 1015.52 1014.91 1014.28 1013.68 1013.17 1012.80 1012.60 1012.60 1012.79
1028.61 1028.51 1028.51 1028.60 1028.74 1028.86 1028.90 1028.76 1028.39 1027.77 1026.90 1025.83 1024.63 1023.39 1022.21 1021.19 1020.38 1019.80 1019.45 1019.28 1019.24 1019.26 1019.27 1019.24 1019.14 1018.96 1018.71 1018.42 1018.10 1017.78 1017.45 1017.10 1016.73 1016.30 1015.81 1015.25 1014.63 1013.99 1013.38 1012.84 1012.42 1012.17 1012.12 1012.27
1028.86 1028.75 1028.73 1028.81 1028.95 1029.08 1029.13 1029.01 1028.67 1028.06 1027.18 1026.07 1024.81 1023.49 1022.21 1021.07 1020.14 1019.46 1019.03 1018.81 1018.75 1018.79 1018.84 1018.86 1018.81 1018.67 1018.46 1018.18 1017.87 1017.53 1017.18 1016.82 1016.42 1015.98 1015.47 1014.90 1014.28 1013.63 1012.99 1012.42 1011.98 1011.70 1011.61 1011.74
1029.18 1029.05 1028.99 1029.02 1029.08 1029.14 1029.12 1028.95 1028.55 1027.91 1027.01 1025.88 1024.60 1023.24 1021.92 1020.74 1019.76 1019.04 1018.57 1018.33 1018.27 1018.32 1018.41 1018.47 1018.47 1018.38 1018.21 1017.96 1017.66 1017.32 1016.95 1016.56 1016.13 1015.66 1015.13 1014.53 1013.89 1013.21 1012.56 1011.97 1011.51 1011.21 1011.11 1011.22
1029.56 1029.41 1029.30 1029.21 1029.14 1029.04 1028.86 1028.55 1028.04 1027.31 1026.37 1025.23 1023.96 1022.64 1021.36 1020.21 1019.26 1018.56 1018.10 1017.88 1017.83 1017.91 1018.03 1018.13 1018.17 1018.13 1018.00 1017.78 1017.49 1017.15 1016.77 1016.35 1015.89 1015.37 1014.80 1014.17 1013.50 1012.81 1012.14 1011.54 1011.06 1010.76 1010.65 1010.75
1030.01 1029.84 1029.63 1029.39 1029.12 1028.79 1028.38 1027.85 1027.17 1026.33 1025.33 1024.20 1022.98 1021.75 1020.58 1019.55 1018.71 1018.09 1017.71 1017.53 1017.52 1017.62 1017.77 1017.89 1017.96 1017.95 1017.84 1017.64 1017.37 1017.02 1016.63 1016.18 1015.69 1015.13 1014.52 1013.86 1013.16 1012.44 1011.76 1011.16 1010.69 1010.38 1010.27 1010.37
1030.48 1030.27 1029.96 1029.54 1029.02 1028.42 1027.73 1026.95 1026.07 1025.09 1024.04 1022.93 1021.81 1020.72 1019.72 1018.87 1018.20 1017.73 1017.45 1017.36 1017.39 1017.52 1017.66 1017.79 1017.86 1017.85 1017.74 1017.55 1017.27 1016.92 1016.51 1016.04 1015.51 1014.92 1014.28 1013.59 1012.87 1012.15 1011.47 1010.87 1010.40 1010.10 1009.99 1010.09
1030.89 1030.65 1030.21 1029.60 1028.83 1027.95 1026.97 1025.93 1024.85 1023.75 1022.66 1021.61 1020.61 1019.71 1018.93 1018.31 1017.84 1017.55 1017.41 1017.40 1017.47 1017.60 1017.73 1017.83 1017.87 1017.82 1017.69 1017.47 1017.18 1016.81 1016.38 1015.89 1015.34 1014.73 1014.07 1013.36 1012.64 1011.92 1011.25 1010.66 1010.21 1009.92 1009.81 1009.90
1031.14 1030.85 1030.30 1029.50 1028.51 1027.37 1026.15 1024.89 1023.65 1022.47 1021.39 1020.42 1019.58 1018.89 1018.35 1017.97 1017.72 1017.61 1017.59 1017.65 1017.75 1017.86 1017.94 1017.97 1017.94 1017.83 1017.64 1017.38 1017.05 1016.66 1016.20 1015.69 1015.13 1014.52 1013.85 1013.15 1012.44 1011.73 1011.08 1010.52 1010.09 1009.80 1009.69 1009.77
1031.11 1030.76 1030.10 1029.16 1028.00 1026.68 1025.29 1023.90 1022.58 1021.39 1020.36 1019.52 1018.86 1018.39 1018.08 1017.92 1017.87 1017.90 1017.98 1018.08 1018.17 1018.22 1018.22 1018.16 1018.02 1017.82 1017.55 1017.23 1016.85 1016.42 1015.95 1015.43 1014.87 1014.26 1013.60 1012.92 1012.23 1011.56 1010.94 1010.40 1009.98 1009.71 1009.60 1009.66
1030.67 1030.26 1029.53 1028.51 1027.26 1025.86 1024.41 1023.00 1021.70 1020.58 1019.66 1018.98 1018.51 1018.25 1018.15 1018.17 1018.27 1018.40 1018.53 1018.62 1018.65 1018.61 1018.50 1018.31 1018.06 1017.75 1017.39 1016.99 1016.56 1016.10 1015.61 1015.09 1014.53 1013.93 1013.30 1012.65 1011.99 1011.35 1010.77 1010.26 1009.86 1009.60 1009.48 1009.53
1029.77 1029.30 1028.53 1027.50 1026.26 1024.90 1023.52 1022.20 1021.03 1020.06 1019.32 1018.82 1018.55 1018.47 1018.53 1018.68 1018.86 1019.03 1019.14 1019.18 1019.12 1018.97 1018.72 1018.40 1018.02 1017.59 1017.14 1016.67 1016.19 1015.70 1015.20 1014.67 1014.12 1013.54 1012.94 1012.32 1011.69 1011.09 1010.54 1010.06 1009.68 1009.43 1009.31 1009.35
1028.41 1027.89 1027.13 1026.15 1025.01 1023.81 1022.61 1021.50 1020.55 1019.80 1019.29 1019.00 1018.91 1018.97 1019.15 1019.36 1019.57 1019.71 1019.76 1019.70 1019.52 1019.23 1018.85 1018.39 1017.89 1017.36 1016.82 1016.29 1015.76 1015.25 1014.73 1014.20 1013.66 1013.09 1012.51 1011.92 1011.33 1010.76 1010.24 1009.78 1009.43 1009.19 1009.08 1009.12
1026.66 1026.11 1025.38 1024.52 1023.58 1022.61 1021.69 1020.87 1020.22 1019.76 1019.49 1019.41 1019.49 1019.67 1019.90 1020.12 1020.29 1020.36 1020.31 1020.13 1019.82 1019.39 1018.88 1018.30 1017.69 1017.08 1016.47 1015.88 1015.31 1014.76 1014.23 1013.69 1013.15 1012.60 1012.03 1011.46 1010.89 1010.35 1009.86 1009.44 1009.11 1008.89 1008.81 1008.85
1024.67 1024.10 1023.45 1022.75 1022.05 1021.38 1020.79 1020.33 1020.01 1019.85 1019.85 1019.97 1020.18 1020.43 1020.68 1020.87 1020.96 1020.93 1020.75 1020.44 1020.00 1019.45 1018.83 1018.15 1017.46 1016.77 1016.10 1015.47 1014.86 1014.28 1013.72 1013.17 1012.61 1012.06 1011.50 1010.94 1010.40 1009.89 1009.43 1009.05 1008.76 1008.57 1008.52 1008.59
1022.63 1022.05 1021.49 1020.98 1020.53 1020.19 1019.95 1019.85 1019.87 1020.01 1020.24 1020.54 1020.85 1021.15 1021.38 1021.50 1021.50 1021.36 1021.06 1020.63 1020.08 1019.44 1018.73 1017.98 1017.22 1016.48 1015.77 1015.08 1014.43 1013.81 1013.21 1012.63 1012.06 1011.49 1010.93 1010.39 1009.87 1009.40 1008.98 1008.65 1008.40 1008.27 1008.27 1008.39
1020.72 1020.15 1019.69 1019.36 1019.17 1019.13 1019.23 1019.45 1019.77 1020.17 1020.60 1021.03 1021.42 1021.73 1021.92 1021.97 1021.88 1021.63 1021.24 1020.71 1020.08 1019.37 1018.60 1017.81 1017.01 1016.22 1015.46 1014.73 1014.02 1013.35 1012.71 1012.09 1011.48 1010.90 1010.34 1009.82 1009.34 1008.91 1008.55 1008.28 1008.11 1008.05 1008.11 1008.30
Thickness
5544 5547 5547 5546 5543 5548 5549 5549 5550 5550 5544 5544 5551 5556 5561 5560 5558 5560 5561 5563 5563 5564 5563 5562 5563 5564 5566 5567 5569 5570 5571 5573 5574 5576 5578 5579 5581 5583 5584 5585 5586 5587 5589 5590
5541 5538 5536 5535 5534 5535 5537 5540 5543 5541 5537 5538 5544 5549 5553 5553 5552 5553 5554 5555 5555 5555 5555 5553 5553 5554 5555 5557 5559 5561 5561 5562 5564 5565 5567 5568 5569 5571 5573 5574 5576 5578 5580 5581
5539 5531 5525 5526 5528 5529 5531 5534 5535 5532 5532 5532 5533 5551 5553 5550 5548 5547 5547 5547 5547 5546 5545 5545 5545 5545 5545 5547 5549 5550 5551 5552 5553 5554 5555 5556 5557 5560 5563 5565 5566 5569 5572 5573
5524 5520 5519 5521 5521 5523 5528 5524 5521 5519 5522 5532 5526 5542 5554 5546 5544 5544 5544 5542 5541 5539 5538 5537 5537 5537 5536 5537 5537 5538 5540 5541 5543 5544 5545 5547 5550 5553 5556 5557 5558 5560 5563 5564
5517 5512 5513 5516 5514 5512 5516 5512 5512 5512 5512 5513 5520 5518 5549 5541 5540 5541 5539 5537 5534 5532 5530 5528 5528 5528 5527 5526 5527 5528 5529 5530 5532 5534 5535 5537 5540 5543 5545 5546 5548 5550 5551 5554
5507 5503 5503 5506 5505 5504 5504 5507 5508 5508 5510 5512 5518 5520 5544 5540 5536 5536 5532 5529 5526 5524 5521 5520 5519 5518 5518 5518 5518 5518 5519 5521 5522 5524 5526 5528 5530 5532 5534 5536 5537 5539 5540 5544
5507 5502 5496 5496 5501 5501 5500 5508 5519 5522 5521 5529 5513 5513 5532 5532 5525 5522 5520 5519 5517 5514 5512 5510 5509 5509 5508 5508 5508 5510 5511 5512 5513 5515 5516 5517 5519 5522 5524 5526 5527 5528 5529 5532
5510 5511 5494 5492 5495 5497 5494 5499 5510 5520 5530 5533 5511 5516 5533 5521 5514 5511 5508 5508 5507 5506 5504 5500 5499 5498 5497 5497 5498 5500 5502 5503 5504 5505 5506 5507 5508 5510 5512 5513 5515 5516 5518 5521
5507 5505 5487 5485 5485 5489 5491 5491 5488 5492 5487 5498 5522 5522 5523 5514 5511 5506 5503 5500 5499 5498 5495 5492 5491 5490 5490 5489 5490 5492 5493 5494 5495 5496 5497 5497 5498 5500 5501 5502 5503 5505 5507 5509
5489 5490 5486 5479 5480 5477 5482 5482 5480 5485 5495 5513 5526 5523 5525 5514 5508 5502 5498 5495 5493 5491 5489 5485 5483 5482 5482 5483 5484 5485 5486 5487 5487 5487 5487 5487 5490 5491 5491 5491 5492 5494 5496 5499
5476 5481 5481 5476 5475 5480 5472 5470 5473 5479 5482 5498 5512 5527 5517 5507 5498 5491 5490 5487 5484 5483 5481 5479 5478 5476 5476 5477 5478 5478 5479 5479 5479 5479 5479 5480 5482 5482 5482 5481 5483 5485 5488 5491
5467 5477 5481 5475 5461 5459 5465 5470 5471 5479 5475 5473 5489 5512 5505 5496 5489 5483 5482 5479 5477 5476 5474 5474 5473 5471 5471 5471 5471 5471 5472 5472 5471 5471 5472 5473 5473 5473 5473 5473 5475 5476 5480 5483
5459 5466 5482 5486 5468 5452 5453 5455 5452 5455 5464 5472 5482 5506 5495 5487 5482 5477 5474 5473 5472 5470 5468 5468 5467 5466 5465 5464 5464 5464 5464 5463 5463 5463 5464 5464 5465 5465 5466 5466 5467 5469 5471 5474
5456 5459 5475 5492 5489 5470 5457 5449 5444 5450 5464 5473 5478 5494 5493 5484 5477 5473 5469 5468 5468 5465 5462 5460 5459 5458 5458 5457 5456 5456 5455 5455 5455 5455 5456 5457 5457 5457 5458 5458 5460 5461 5463 5466
5448 5457 5454 5457 5454 5453 5455 5452 5442 5443 5459 5466 5480 5475 5481 5475 5467 5463 5461 5461 5460 5458 5454 5451 5450 5450 5450 5449 5448 5448 5447 5447 5448 5448 5449 5449 5449 5449 5450 5451 5452 5453 5455 5457
5436 5444 5443 5451 5448 5444 5445 5451 5445 5441 5446 5452 5456 5462 5471 5463 5457 5456 5455 5453 5452 5451 5447 5444 5442 5441 5441 5441 5441 5441 5441 5441 5442 5442 5443 5442 5442 5442 5442 5442 5443 5444 5446 5448
5431 5431 5445 5463 5443 5442 5463 5460 5447 5445 5444 5446 5456 5465 5461 5455 5452 5450 5449 5447 5444 5442 5439 5437 5435 5433 5433 5433 5433 5434 5435 5435 5435 5435 5435 5434 5434 5434 5434 5434 5435 5436 5438 5440
5418 5424 5431 5446 5447 5459 5474 5446 5445 5442 5442 5439 5443 5450 5450 5446 5444 5441 5440 5439 5437 5434 5431 5429 5428 5426 5425 5426 5426 5426 5427 5427 5427 5427 5426 5426 5426 5425 5425 5426 5427 5428 5430 5432
5413 5417 5426 5436 5452 5465 5463 5444 5436 5435 5446 5444 5438 5441 5441 5438 5439 5443 5438 5432 5429 5427 5425 5422 5421 5419 5418 5419 5419 5419 5419 5420 5420 5419 5419 5418 5418 5417 5417 5418 5419 5420 5421 5423
5399 5404 5418 5423 5444 5460 5464 5437 5428 5431 5448 5445 5433 5433 5432 5430 5443 5446 5432 5426 5423 5421 5418 5415 5413 5412 5412 5412 5411 5412 5412 5412 5412 5411 5410 5410 5409 5409 5410 5410 5411 5412 5413 5415
5399 5403 5410 5419 5433 5451 5442 5424 5424 5442 5453 5435 5428 5426 5424 5424 5428 5425 5420 5418 5416 5413 5410 5408 5407 5406 5405 5404 5404 5404 5404 5404 5403 5402 5402 5402 5402 5402 5402 5402 5402 5403 5404 5406
5410 5412 5407 5413 5424 5442 5425 5419 5427 5437 5429 5425 5422 5420 5417 5417 5415 5413 5412 5410 5408 5406 5404 5402 5401 5400 5398 5397 5396 5396 5396 5395 5394 5395 5395 5395 5394 5394 5393 5394 5394 5395 5396 5397
5404 5412 5416 5415 5432 5427 5416 5419 5419 5415 5416 5417 5416 5413 5409 5408 5408 5406 5404 5403 5401 5399 5398 5396 5394 5393 5392 5390 5390 5390 5388 5387 5387 5387 5387 5387 5386 5386 5386 5387 5387 5388 5389 5390
5398 5389 5397 5400 5417 5415 5411 5410 5409 5407 5407 5408 5406 5404 5402 5401 5401 5400 5398 5396 5394 5392 5390 5389 5388 5387 5385 5384 5382 5381 5380 5380 5380 5379 5379 5379 5379 5379 5379 5379 5380 5381 5382 5383
5406 5388 5392 5398 5409 5410 5412 5408 5407 5404 5403 5401 5400 5398 5395 5394 5394 5393 5391 5390 5388 5386 5384 5382 5381 5380 5379 5377 5376 5375 5374 5373 5373 5372 5372 5373 5373 5373 5373 5372 5372 5373 5374 5375
5395 5392 5400 5416 5414 5410 5415 5408 5402 5399 5398 5396 5394 5393 5391 5387 5387 5386 5384 5382 5380 5378 5377 5376 5375 5374 5372 5371 5370 5369 5367 5366 5366 5365 5366 5366 5366 5366 5367 5367 5366 5365 5366 5367